Starlink 1154

operational
NORAD ID: 45198 Int'l Des: 2020-012 Owner: SPXS Country: US Constellation: starlink
LEOCIRCULARSTARLINK_TYPE

关于 Starlink 1154

正在加载描述...

实时位置

正在加载3D地球...

即将过境

高度历史

Altitude vs Time

uPlot chart will show altitude changes over time

两行轨道根数

1 45198U 20012W 26035.00002314 .00061532 00000-0 14709-2 0 9998
2 45198 53.0503 170.0616 0003006 329.9077 318.6054 15.40926820 5876
Epoch: Feb 4, 2026 • Age: 14 hours

当前状态

高度 460.2 km
速度 7.64 km/s
星下点 -52.59°S, 105.2°E
发射日期 Feb 17, 2020
运行时间 5.9 years
类型 internet

技术详情

分类 Payload
质量 260.00 kg
干质量 248.00 kg
总质量 260.00 kg
长度 0.20 m
直径 2.80 m
跨度 9.00 m
形状 Box + pan
制造商 SPXS
平台类型 Starlink
阶段状态 In Orbit
所有者/国家 SPXS/US

大型星座

Loading constellations...